| time (UTC) | temp F | wind direction | speed knots | gust knots | rain 1hr in | rain 24hr in | rain mn in | humidity % | barometer mb |
| 20260506062029 | 47 | 211 | 2.6 | 3.5 | 0.00 | 0.05 | 0.00 | 95 | 679.4 |
| 20260506061029 | 47 | 208 | 2.6 | 4.3 | 0.00 | 0.05 | 0.00 | 96 | 679.4 |
| 20260506051030 | 47 | 207 | 2.6 | 4.3 | 0.00 | 0.05 | 0.00 | 97 | 679.4 |
| 20260506045030 | 47 | 202 | 3.5 | 4.3 | 0.00 | 0.05 | 0.00 | 97 | 679.4 |
| 20260506044031 | 47 | 216 | 2.6 | 3.5 | 0.00 | 0.05 | 0.00 | 97 | 679.4 |
| 20260506043030 | 47 | 203 | 2.6 | 5.2 | 0.00 | 0.05 | 0.00 | 97 | 679.4 |
| 20260506042030 | 47 | 188 | 7.0 | 10.4 | 0.00 | 0.05 | 0.00 | 95 | 679.4 |
| 20260506041031 | 48 | 199 | 5.2 | 7.0 | 0.00 | 0.05 | 0.00 | 95 | 679.4 |
| 20260506040031 | 48 | 174 | 4.3 | 6.1 | 0.00 | 0.05 | 0.00 | 95 | 679.4 |
| 20260506035031 | 48 | 193 | 3.5 | 5.2 | 0.00 | 0.05 | 0.05 | 94 | 679.4 |
| 20260506034031 | 48 | 177 | 4.3 | 7.0 | 0.00 | 0.05 | 0.05 | 94 | 679.4 |
| 20260506033051 | 48 | 188 | 4.3 | 6.1 | 0.00 | 0.05 | 0.05 | 94 | 679.4 |
| 20260506032057 | 48 | 194 | 4.3 | 7.0 | 0.00 | 0.05 | 0.05 | 93 | 679.4 |
| 20260506031112 | 48 | 198 | 2.6 | 4.3 | 0.00 | 0.05 | 0.05 | 93 | 679.4 |
| 20260506030052 | 48 | 177 | 3.5 | 4.3 | 0.00 | 0.05 | 0.05 | 93 | 679.4 |
| 20260506025052 | 48 | 186 | 3.5 | 4.3 | 0.00 | 0.05 | 0.05 | 93 | 679.4 |
| 20260506024052 | 48 | 179 | 4.3 | 6.1 | 0.00 | 0.05 | 0.05 | 92 | 679.4 |
| 20260506023032 | 48 | 187 | 3.5 | 6.1 | 0.00 | 0.05 | 0.05 | 91 | 679.4 |
| 20260506022032 | 48 | 179 | 3.5 | 6.1 | 0.00 | 0.05 | 0.05 | 90 | 679.4 |
| 20260506021032 | 48 | 180 | 2.6 | 3.5 | 0.00 | 0.05 | 0.05 | 88 | 679.4 |
| 20260506020033 | 48 | 178 | 2.6 | 3.5 | 0.00 | 0.05 | 0.05 | 88 | 679.4 |
| 20260506015033 | 49 | 188 | 2.6 | 3.5 | 0.00 | 0.06 | 0.05 | 87 | 679.4 |
| 20260506014033 | 48 | 190 | 2.6 | 3.5 | 0.00 | 0.06 | 0.05 | 87 | 679.4 |
| 20260506013018 | 49 | 164 | 1.7 | 2.6 | 0.00 | 0.06 | 0.05 | 87 | 679.4 |
| 20260506012038 | 49 | 172 | 2.6 | 2.6 | 0.00 | 0.06 | 0.05 | 86 | 679.4 |
| 20260506011018 | 49 | 159 | 1.7 | 2.6 | 0.00 | 0.06 | 0.05 | 86 | 679.5 |
| 20260506010059 | 49 | 173 | 1.7 | 1.7 | 0.00 | 0.06 | 0.05 | 85 | 679.5 |
| 20260506005018 | 49 | 153 | 1.7 | 2.6 | 0.00 | 0.06 | 0.05 | 84 | 679.5 |
| 20260506004039 | 49 | 155 | 1.7 | 2.6 | 0.00 | 0.06 | 0.05 | 85 | 679.5 |
| 20260506003019 | 49 | 159 | 1.7 | 2.6 | 0.00 | 0.06 | 0.05 | 83 | 679.5 |
| 20260506002019 | 50 | 164 | 1.7 | 1.7 | 0.00 | 0.06 | 0.05 | 83 | 679.5 |
| 20260506001019 | 50 | 159 | 1.7 | 3.5 | 0.00 | 0.06 | 0.05 | 83 | 679.5 |
| 20260506000019 | 50 | 162 | 1.7 | 2.6 | 0.00 | 0.06 | 0.05 | 77 | 679.5 |
| 20260505235019 | 50 | 158 | 0.9 | 1.7 | 0.00 | 0.06 | 0.05 | 76 | 679.5 |
| 20260505234019 | 50 | 153 | 0.9 | 1.7 | 0.00 | 0.06 | 0.05 | 76 | 679.5 |
| 20260505233020 | 50 | 160 | 0.9 | 1.7 | 0.00 | 0.06 | 0.05 | 76 | 679.5 |
| 20260505232020 | 50 | 176 | 1.7 | 1.7 | 0.00 | 0.06 | 0.05 | 76 | 679.5 |
| 20260505231020 | 50 | 187 | 0.9 | 1.7 | 0.00 | 0.06 | 0.05 | 76 | 679.5 |
| 20260505230020 | 50 | 196 | 2.6 | 3.5 | 0.00 | 0.06 | 0.05 | 76 | 679.5 |
| 20260505225020 | 50 | 207 | 1.7 | 1.7 | 0.00 | 0.06 | 0.05 | 76 | 679.5 |
| 20260505224020 | 50 | 202 | 0.9 | 1.7 | 0.00 | 0.06 | 0.05 | 76 | 679.5 |
| 20260505223020 | 50 | 181 | 1.7 | 2.6 | 0.00 | 0.06 | 0.05 | 76 | 679.5 |
| 20260505222020 | 50 | 177 | 1.7 | 1.7 | 0.00 | 0.06 | 0.05 | 76 | 679.5 |
| 20260505221021 | 51 | 214 | 1.7 | 2.6 | 0.00 | 0.06 | 0.05 | 76 | 679.5 |
| 20260505220021 | 50 | 213 | 1.7 | 2.6 | 0.00 | 0.06 | 0.05 | 76 | 679.5 |
| 20260505215021 | 50 | 57 | 0.0 | 0.9 | 0.00 | 0.06 | 0.05 | 74 | 679.5 |
| 20260505214021 | 51 | 0.0 | 0.0 | 0.00 | 0.06 | 0.05 | 75 | 679.5 | |
| 20260505213021 | 50 | 333 | 0.0 | 0.9 | 0.00 | 0.06 | 0.05 | 75 | 679.5 |
| 20260505212021 | 50 | 0.0 | 0.0 | 0.00 | 0.06 | 0.05 | 74 | 679.5 | |
| 20260505211021 | 51 | 200 | 0.0 | 0.9 | 0.00 | 0.06 | 0.05 | 75 | 679.5 |
| 20260505210022 | 51 | 335 | 0.9 | 2.6 | 0.00 | 0.06 | 0.05 | 74 | 679.5 |
| 20260505205022 | 51 | 279 | 0.0 | 0.9 | 0.00 | 0.06 | 0.05 | 75 | 679.5 |
| 20260505204102 | 51 | 325 | 0.9 | 2.6 | 0.00 | 0.06 | 0.05 | 75 | 679.5 |
| 20260505203021 | 51 | 331 | 0.9 | 1.7 | 0.00 | 0.06 | 0.05 | 74 | 679.5 |
| 20260505202022 | 51 | 333 | 1.7 | 2.6 | 0.00 | 0.06 | 0.05 | 74 | 679.5 |
| 20260505201043 | 51 | 330 | 1.7 | 2.6 | 0.00 | 0.06 | 0.05 | 74 | 679.5 |
| 20260505200204 | 52 | 335 | 1.7 | 4.3 | 0.00 | 0.06 | 0.05 | 74 | 679.5 |
| 20260505195022 | 52 | 326 | 2.6 | 4.3 | 0.01 | 0.06 | 0.05 | 74 | 679.5 |
| 20260505194023 | 52 | 318 | 1.7 | 4.3 | 0.01 | 0.06 | 0.05 | 73 | 679.6 |
| 20260505193023 | 52 | 327 | 1.7 | 2.6 | 0.02 | 0.06 | 0.05 | 74 | 679.6 |
| 20260505192022 | 52 | 244 | 0.9 | 2.6 | 0.02 | 0.06 | 0.05 | 72 | 679.6 |
| 20260505191023 | 53 | 269 | 0.0 | 1.7 | 0.03 | 0.06 | 0.05 | 72 | 679.6 |
| 20260505190043 | 53 | 242 | 0.0 | 0.9 | 0.04 | 0.06 | 0.04 | 71 | 679.6 |
| 20260505185023 | 54 | 236 | 0.9 | 1.7 | 0.03 | 0.05 | 0.03 | 69 | 679.6 |
| 20260505184024 | 54 | 226 | 0.9 | 2.6 | 0.03 | 0.05 | 0.03 | 69 | 679.6 |
| 20260505183023 | 55 | 310 | 0.0 | 1.7 | 0.03 | 0.04 | 0.03 | 65 | 679.6 |
| 20260505182024 | 56 | 293 | 0.9 | 3.5 | 0.02 | 0.04 | 0.02 | 63 | 679.6 |
| 20260505181024 | 57 | 315 | 1.7 | 5.2 | 0.01 | 0.03 | 0.01 | 60 | 679.7 |
| 20260505180024 | 58 | 319 | 1.7 | 3.5 | 0.01 | 0.02 | 0.01 | 58 | 679.7 |
| 20260505175044 | 58 | 235 | 0.9 | 2.6 | 0.00 | 0.02 | 0.00 | 53 | 679.7 |
| 20260505174025 | 60 | 328 | 1.7 | 3.5 | 0.00 | 0.01 | 0.00 | 51 | 679.8 |
| 20260505173024 | 60 | 324 | 2.6 | 5.2 | 0.00 | 0.01 | 0.00 | 51 | 679.8 |
| 20260505172045 | 60 | 331 | 3.5 | 5.2 | 0.00 | 0.01 | 0.00 | 50 | 679.8 |
| 20260505171025 | 61 | 348 | 2.6 | 4.3 | 0.00 | 0.01 | 0.00 | 50 | 679.8 |
| 20260505170025 | 61 | 360 | 2.6 | 4.3 | 0.00 | 0.01 | 0.00 | 50 | 679.8 |
| 20260505165025 | 61 | 323 | 3.5 | 4.3 | 0.00 | 0.01 | 0.00 | 52 | 679.8 |
| 20260505164025 | 61 | 338 | 1.7 | 4.3 | 0.00 | 0.01 | 0.00 | 53 | 679.8 |
| 20260505163045 | 61 | 339 | 2.6 | 4.3 | 0.00 | 0.01 | 0.00 | 53 | 679.8 |
| 20260505162025 | 61 | 328 | 1.7 | 4.3 | 0.00 | 0.01 | 0.00 | 54 | 679.8 |
| 20260505161025 | 61 | 338 | 2.6 | 5.2 | 0.00 | 0.01 | 0.00 | 55 | 679.8 |
| 20260505153146 | 61 | 351 | 3.5 | 6.1 | 0.00 | 0.01 | 0.00 | 53 | 679.8 |
| 20260505152026 | 61 | 322 | 3.5 | 7.8 | 0.00 | 0.01 | 0.00 | 53 | 679.8 |
| 20260505151026 | 63 | 325 | 3.5 | 6.1 | 0.00 | 0.01 | 0.00 | 54 | 679.8 |
| 20260505125028 | 52 | 334 | 2.6 | 4.3 | 0.00 | 0.01 | 0.00 | 76 | 679.5 |
| 20260505124028 | 52 | 327 | 3.5 | 4.3 | 0.00 | 0.01 | 0.00 | 76 | 679.5 |
| 20260505123028 | 51 | 325 | 2.6 | 4.3 | 0.00 | 0.01 | 0.00 | 76 | 679.5 |
| 20260505122044 | 50 | 322 | 3.5 | 5.2 | 0.00 | 0.01 | 0.00 | 76 | 679.5 |
| 20260505121049 | 50 | 343 | 3.5 | 5.2 | 0.00 | 0.01 | 0.00 | 76 | 679.5 |
| 20260505120029 | 51 | 329 | 4.3 | 7.0 | 0.00 | 0.01 | 0.00 | 76 | 679.5 |
| 20260505115029 | 52 | 323 | 3.5 | 6.1 | 0.00 | 0.01 | 0.00 | 76 | 679.5 |
| 20260505114044 | 53 | 330 | 1.7 | 3.5 | 0.00 | 0.01 | 0.00 | 76 | 679.5 |
| 20260505113029 | 54 | 318 | 2.6 | 6.1 | 0.00 | 0.01 | 0.00 | 76 | 679.5 |
| 20260505112050 | 55 | 328 | 3.5 | 5.2 | 0.00 | 0.01 | 0.00 | 76 | 679.6 |
| 20260505111029 | 56 | 318 | 3.5 | 7.0 | 0.00 | 0.01 | 0.00 | 80 | 679.6 |
| 20260505102030 | 57 | 246 | 2.6 | 7.0 | 0.00 | 0.01 | 0.00 | 83 | 679.6 |
| 20260505101051 | 57 | 259 | 1.7 | 4.3 | 0.00 | 0.01 | 0.00 | 82 | 679.6 |
| 20260505100030 | 57 | 250 | 1.7 | 2.6 | 0.00 | 0.01 | 0.00 | 76 | 679.6 |
| 20260505095031 | 57 | 267 | 1.7 | 5.2 | 0.00 | 0.01 | 0.00 | 76 | 679.6 |
| 20260505094031 | 57 | 267 | 1.7 | 4.3 | 0.00 | 0.01 | 0.00 | 76 | 679.6 |
| 20260505093031 | 58 | 243 | 1.7 | 5.2 | 0.00 | 0.01 | 0.00 | 76 | 679.6 |
| 20260505092052 | 58 | 253 | 1.7 | 3.5 | 0.00 | 0.01 | 0.00 | 76 | 679.6 |
| 20260505091032 | 58 | 252 | 1.7 | 3.5 | 0.00 | 0.01 | 0.00 | 76 | 679.6 |
| 20260505090031 | 58 | 264 | 1.7 | 4.3 | 0.00 | 0.01 | 0.00 | 76 | 679.7 |
| 20260505085032 | 59 | 268 | 1.7 | 4.3 | 0.00 | 0.01 | 0.00 | 76 | 679.6 |
| 20260505084052 | 59 | 258 | 0.9 | 3.5 | 0.00 | 0.01 | 0.00 | 76 | 679.7 |
| 20260505083032 | 59 | 231 | 2.6 | 5.2 | 0.00 | 0.01 | 0.00 | 76 | 679.7 |
| 20260505082047 | 59 | 231 | 1.7 | 4.3 | 0.00 | 0.01 | 0.00 | 76 | 679.7 |
| 20260505081032 | 59 | 254 | 2.6 | 4.3 | 0.00 | 0.01 | 0.00 | 76 | 679.7 |
| 20260505080017 | 59 | 248 | 2.6 | 5.2 | 0.00 | 0.01 | 0.00 | 74 | 679.7 |
| 20260505075018 | 59 | 279 | 0.9 | 4.3 | 0.00 | 0.01 | 0.00 | 74 | 679.7 |
| 20260505074018 | 60 | 232 | 2.6 | 5.2 | 0.00 | 0.01 | 0.00 | 74 | 679.7 |
| 20260505073018 | 60 | 233 | 3.5 | 6.1 | 0.00 | 0.01 | 0.00 | 74 | 679.7 |
| 20260505072018 | 60 | 233 | 2.6 | 4.3 | 0.00 | 0.01 | 0.00 | 74 | 679.7 |
| 20260505071018 | 60 | 235 | 2.6 | 6.1 | 0.00 | 0.01 | 0.00 | 74 | 679.7 |